RYR227 ESGG-EPGD

Flight info

Callsign RYR227
Flight time N/A
Altitude 37000
Route LUKAX DCT TEMLI DCT PENOR N133 DOMAG T240 OGDAV
Aircraft B738/M-SDE2E3FGHIRWXY/LB1

Departure

Time 2026-05-05 20:41
Airport Göteborg Landvetter Airport (ESGG)

Arrival

Time N/A
Airport Gdańsk Lech Wałęsa Airport (EPGD)
Time Latitude Longitude Altitude Speed Heading
2026-05-05 20:05 57.67009 12.29527 516 ft 0 kts 115°
2026-05-05 20:31 57.67010 12.29525 516 ft 1 kts 115°
2026-05-05 20:31 57.67016 12.29500 516 ft 2 kts 115°
2026-05-05 20:32 57.67023 12.29476 515 ft 2 kts 133°
2026-05-05 20:32 57.67034 12.29458 515 ft 2 kts 146°
2026-05-05 20:32 57.67048 12.29445 515 ft 2 kts 162°
2026-05-05 20:32 57.67062 12.29440 514 ft 2 kts 178°
2026-05-05 20:33 57.67077 12.29442 515 ft 2 kts 194°
2026-05-05 20:33 57.67086 12.29448 515 ft 0 kts 205°
2026-05-05 20:33 57.67092 12.29454 515 ft 0 kts 207°
2026-05-05 20:35 57.67046 12.29410 514 ft 11 kts 206°
2026-05-05 20:35 57.66989 12.29322 513 ft 10 kts 264°
2026-05-05 20:35 57.67018 12.29168 512 ft 14 kts 295°
2026-05-05 20:36 57.67017 12.28998 509 ft 15 kts 213°
2026-05-05 20:36 57.66914 12.28900 509 ft 21 kts 205°
2026-05-05 20:36 57.66778 12.28775 509 ft 21 kts 208°
2026-05-05 20:36 57.66643 12.28653 510 ft 22 kts 206°
2026-05-05 20:37 57.66463 12.28489 514 ft 30 kts 205°
2026-05-05 20:37 57.66277 12.28317 513 ft 29 kts 206°
2026-05-05 20:37 57.66094 12.28157 513 ft 28 kts 206°
2026-05-05 20:37 57.65933 12.28004 513 ft 25 kts 205°
2026-05-05 20:38 57.65780 12.27867 514 ft 23 kts 206°
2026-05-05 20:38 57.65719 12.27810 513 ft 1 kts 205°
2026-05-05 20:38 57.65613 12.27715 512 ft 30 kts 206°
2026-05-05 20:38 57.65427 12.27542 509 ft 30 kts 208°
2026-05-05 20:39 57.65236 12.27365 504 ft 31 kts 206°
2026-05-05 20:39 57.65057 12.27210 498 ft 15 kts 204°
2026-05-05 20:39 57.65020 12.27094 495 ft 12 kts 290°
2026-05-05 20:39 57.65093 12.26999 493 ft 13 kts 345°
2026-05-05 20:40 57.65191 12.26999 493 ft 18 kts 16°
2026-05-05 20:40 57.65399 12.27179 500 ft 47 kts 29°
2026-05-05 20:40 57.65971 12.27670 510 ft 130 kts 26°
2026-05-05 20:40 57.66944 12.28596 812 ft 171 kts 26°
2026-05-05 20:41 57.68007 12.29593 1730 ft 178 kts 24°
2026-05-05 20:41 57.69094 12.30582 2540 ft 177 kts 24°
2026-05-05 20:41 57.70228 12.31685 2870 ft 194 kts 33°
2026-05-05 20:41 57.71167 12.33574 3324 ft 206 kts 61°
2026-05-05 20:42 57.71724 12.36143 3628 ft 225 kts 60°
2026-05-05 20:42 57.72782 12.38372 4054 ft 239 kts 36°
2026-05-05 20:42 57.74110 12.40318 4544 ft 253 kts 38°
2026-05-05 20:42 57.75430 12.42627 4962 ft 268 kts 44°
2026-05-05 20:43 57.76728 12.45271 4970 ft 279 kts 47°
2026-05-05 20:43 57.77778 12.48255 4976 ft 272 kts 65°
2026-05-05 20:43 57.78206 12.51632 4970 ft 268 kts 86°
2026-05-05 20:43 57.78199 12.55189 5244 ft 281 kts 90°
2026-05-05 20:44 57.78142 12.58766 6204 ft 276 kts 90°
2026-05-05 20:44 57.78102 12.62339 6942 ft 279 kts 89°
2026-05-05 20:44 57.78076 12.66016 7589 ft 287 kts 90°
2026-05-05 20:44 57.78055 12.69768 8300 ft 292 kts 90°
2026-05-05 20:45 57.78010 12.77476 9654 ft 305 kts 90°
2026-05-05 20:45 57.77984 12.81487 10280 ft 314 kts 90°
2026-05-05 20:45 57.77954 12.85709 10653 ft 332 kts 90°
2026-05-05 20:46 57.77922 12.90107 10977 ft 351 kts 90°
2026-05-05 20:46 57.77777 12.94627 11370 ft 365 kts 98°
2026-05-05 20:46 57.77047 12.99119 12020 ft 369 kts 118°
2026-05-05 20:46 57.75733 13.03310 12670 ft 374 kts 126°
2026-05-05 20:47 57.74283 13.07280 13360 ft 379 kts 129°
2026-05-05 20:47 57.72753 13.11327 14052 ft 385 kts 129°
2026-05-05 20:47 57.71211 13.15401 14789 ft 390 kts 130°
2026-05-05 20:47 57.69546 13.19422 15581 ft 391 kts 134°
2026-05-05 20:48 57.67794 13.23329 16337 ft 394 kts 135°
2026-05-05 20:48 57.66025 13.27165 17052 ft 398 kts 136°
2026-05-05 20:48 57.64204 13.31117 17740 ft 403 kts 135°
2026-05-05 20:48 57.62394 13.35082 18457 ft 406 kts 135°
2026-05-05 20:49 57.60566 13.39125 19097 ft 412 kts 135°
2026-05-05 20:49 57.58735 13.43198 19790 ft 414 kts 135°
2026-05-05 20:49 57.56887 13.47321 20499 ft 417 kts 135°
2026-05-05 20:49 57.55040 13.51438 21056 ft 423 kts 135°
2026-05-05 20:50 57.53145 13.55656 21712 ft 426 kts 135°
2026-05-05 20:50 57.51256 13.59854 22307 ft 430 kts 135°
2026-05-05 20:50 57.49322 13.64143 22905 ft 433 kts 136°
2026-05-05 20:50 57.47392 13.68417 23496 ft 436 kts 136°
2026-05-05 20:51 57.45439 13.72735 24000 ft 441 kts 136°
2026-05-05 20:51 57.43478 13.77063 24564 ft 444 kts 136°
2026-05-05 20:51 57.41492 13.81437 25091 ft 447 kts 136°
2026-05-05 20:51 57.39493 13.85839 25689 ft 449 kts 136°
2026-05-05 20:52 57.37479 13.90259 26170 ft 453 kts 136°
2026-05-05 20:52 57.35453 13.94698 26694 ft 456 kts 137°
2026-05-05 20:52 57.33398 13.99195 27232 ft 459 kts 137°
2026-05-05 20:52 57.31335 14.03697 27696 ft 462 kts 136°
2026-05-05 20:53 57.29257 14.08224 28187 ft 465 kts 136°
2026-05-05 20:53 57.27168 14.12767 28694 ft 467 kts 137°
2026-05-05 20:53 57.25047 14.17367 29068 ft 472 kts 136°
2026-05-05 20:53 57.22925 14.21967 29764 ft 469 kts 136°
2026-05-05 20:54 57.20827 14.26517 30461 ft 466 kts 136°
2026-05-05 20:54 57.18742 14.31025 30926 ft 467 kts 136°
2026-05-05 20:54 57.16629 14.35584 31547 ft 464 kts 136°
2026-05-05 20:54 57.14516 14.40134 32114 ft 462 kts 137°
2026-05-05 20:55 57.12423 14.44632 32567 ft 462 kts 136°
2026-05-05 20:55 57.10296 14.49186 33102 ft 460 kts 137°
2026-05-05 20:55 57.08225 14.53615 33599 ft 458 kts 136°
2026-05-05 20:55 57.06124 14.58098 34123 ft 456 kts 137°
2026-05-05 20:56 57.04079 14.62454 34573 ft 454 kts 137°
2026-05-05 20:56 57.01991 14.66891 34927 ft 454 kts 137°
2026-05-05 20:56 56.99941 14.71239 35243 ft 453 kts 137°
2026-05-05 20:56 56.97872 14.75617 35559 ft 452 kts 137°
2026-05-05 20:57 56.95822 14.79949 35808 ft 451 kts 137°
2026-05-05 20:57 56.93771 14.84274 36021 ft 451 kts 137°
2026-05-05 20:57 56.91723 14.88586 36260 ft 451 kts 137°
2026-05-05 20:57 56.89658 14.92924 36560 ft 451 kts 137°
2026-05-05 20:58 56.87599 14.97242 36845 ft 451 kts 137°
2026-05-05 20:58 56.85545 15.01539 36898 ft 455 kts 137°
2026-05-05 20:58 56.81411 15.10170 36907 ft 452 kts 137°
2026-05-05 20:59 56.77291 15.18752 36912 ft 449 kts 137°
2026-05-05 20:59 56.73202 15.27227 36899 ft 449 kts 137°
2026-05-05 21:00 56.69085 15.35735 36897 ft 448 kts 137°
2026-05-05 21:00 56.64882 15.44012 36886 ft 445 kts 141°
2026-05-05 21:01 56.60460 15.51791 36896 ft 444 kts 142°
2026-05-05 21:01 56.56000 15.59474 36880 ft 443 kts 142°
2026-05-05 21:02 56.51564 15.67158 36879 ft 444 kts 142°
2026-05-05 21:02 56.47131 15.74880 36897 ft 443 kts 142°
2026-05-05 21:03 56.42741 15.82535 36899 ft 443 kts 142°
2026-05-05 21:03 56.38318 15.90231 36909 ft 443 kts 142°
2026-05-05 21:04 56.33892 15.97910 36897 ft 442 kts 142°
2026-05-05 21:04 56.29485 16.05531 36902 ft 443 kts 142°
2026-05-05 21:05 56.25055 16.13159 36897 ft 442 kts 142°
2026-05-05 21:05 56.20609 16.20803 36870 ft 442 kts 142°
2026-05-05 21:06 56.18395 16.24599 36639 ft 445 kts 142°
2026-05-05 21:06 56.16167 16.28412 36411 ft 443 kts 142°
2026-05-05 21:06 56.13931 16.32235 36251 ft 441 kts 142°
2026-05-05 21:06 56.11732 16.35990 36081 ft 439 kts 142°
2026-05-05 21:07 56.09544 16.39716 35894 ft 440 kts 142°
2026-05-05 21:07 56.07336 16.43468 35703 ft 441 kts 142°
2026-05-05 21:07 56.05115 16.47233 35500 ft 442 kts 142°
2026-05-05 21:07 56.02895 16.50989 35293 ft 442 kts 142°
2026-05-05 21:08 56.00671 16.54746 35083 ft 440 kts 142°
2026-05-05 21:08 55.98461 16.58480 34891 ft 438 kts 143°
2026-05-05 21:08 55.96251 16.62209 34644 ft 437 kts 143°
2026-05-05 21:08 55.94068 16.65886 34385 ft 435 kts 144°
2026-05-05 21:09 55.91895 16.69543 34125 ft 432 kts 143°
2026-05-05 21:09 55.89702 16.73227 33870 ft 430 kts 144°
2026-05-05 21:09 55.87539 16.76846 33597 ft 430 kts 144°
2026-05-05 21:09 55.85350 16.80502 33339 ft 429 kts 144°
2026-05-05 21:10 55.83184 16.84114 33079 ft 429 kts 144°
2026-05-05 21:10 55.81017 16.87725 32816 ft 428 kts 144°
2026-05-05 21:10 55.78886 16.91268 32556 ft 425 kts 144°
2026-05-05 21:10 55.76733 16.94848 32288 ft 423 kts 144°
2026-05-05 21:11 55.74574 16.98430 32022 ft 423 kts 144°
2026-05-05 21:11 55.72461 17.01929 31760 ft 422 kts 144°
2026-05-05 21:11 55.70304 17.05497 31490 ft 421 kts 145°
2026-05-05 21:11 55.68185 17.08995 31225 ft 419 kts 145°
2026-05-05 21:12 55.66032 17.12440 30956 ft 415 kts 147°
2026-05-05 21:12 55.63804 17.15587 30472 ft 414 kts 153°
2026-05-05 21:12 55.61380 17.18292 29901 ft 409 kts 159°
2026-05-05 21:12 55.58875 17.20567 29218 ft 403 kts 163°
2026-05-05 21:13 55.56352 17.22606 28623 ft 401 kts 165°
2026-05-05 21:13 55.53821 17.24570 28080 ft 397 kts 165°
2026-05-05 21:13 55.51318 17.26500 27540 ft 395 kts 164°